User: anonymous   Login
Location: Unspecified
(0.0000°N, 0.0000°E)
Time: 23:39:11
(UTC+02:00)
Language:

Delta 2 Rocket - Orbit

View from above orbital plane
View from above orbital plane
View from above satellite
View from above satellite

Ground track
Ground track

The orbit data is extracted from the following two-line orbital elements,

1 20453U 90008B   17086.72377734 +.00001477 +00000-0 +86419-4 0  9994
2 20453 035.6271 348.8179 0290756 210.9582 147.3698 14.82943750436101
Epoch (UTC): 27 March 2017 17:22:14
Eccentricity: 0.0290756
inclination: 35.6271°
perigee height: 416 km
apogee height: 823 km
right ascension of ascending node: 348.8179°
argument of perigee: 210.9582°
revolutions per day: 14.82943750
mean anomaly at epoch: 147.3698°
orbit number at epoch: 43610

The dashed part of the orbit path shows where the satellite is in the earth's shadow,  

DLR